Location: Unspecified
(0.0000°N, 0.0000°E)
Time: 02:15:06
(UTC+00:00)

deb Explorer IX - Pass Details

Date: 21 December 2018
Orbit: 538 x 1115 km, 38.8° (Epoch: 17 January)

Event Time Altitude Azimuth Distance (km) Brightness Sun altitude
Rises 22:54:27 0° 333° (NNW) 2,719 - -61.9°
Reaches altitude 10° 22:56:55 10° 347° (NNW) 1,875 - -62.2°
Maximum altitude 23:00:28 25° 43° (NE) 1,251 - -62.7°
Drops below altitude 10° 23:04:23 10° 98° (E) 2,097 - -63.2°
Sets 23:07:18 0° 111° (ESE) 3,122 - -63.5°
